Location: Mapua
(41.2500°S, 173.1000°E)
Time: 00:27:07
(UTC+12:00)

OTV 5 (USA 277) - Visible Passes

Search period start: 24 June 2018 00:00
Search period end: 04 July 2018 00:00
Orbit: 313 x 320 km, 54.5° (Epoch: 21 June)

Date Brightness Start Highest point End Pass type
(mag) Time Alt. Az. Time Alt. Az. Time Alt. Az.
24 Jun ? 06:09:33 21° N 06:10:54 36° NE 06:13:31 10° ESE visible
25 Jun ? 06:24:47 54° W 06:25:16 70° SW 06:28:04 10° SE visible
26 Jun ? 06:39:36 27° SW 06:39:47 27° SSW 06:42:16 10° SSE visible
27 Jun ? 06:54:07 15° SSW 06:54:25 15° SSW 06:56:09 10° SSE visible
